Voltar ao catálogo

FENGYUN 1C DEB

AtivoSSO
NORAD 38122·DEBRIS·🇨🇳 China

Lançado May 10, 1999 de Taiyuan Satellite Launch Center

Loading…

Próximas Passagens (próximas 24 horas)

TLE

AtualizadoSource: Space-Track

Época: Sep 12, 2026, 11:09 UTC

1 38122U 99025EPT 26255.46462282  .00001717  00000-0  38148-3 0  9998
2 38122  98.3228 256.8327 0225151  48.2119 313.8069 14.43799987716874

Acompanhe FENGYUN 1C DEB em tempo real com AllMySat

Download on the App Store